"2009-04-14 00:00:00",798090,5.404,295.2,5.819,1.148,13.35,105.5056,13.37,14.47,18.26,0,110.4,13.29,14.17,257.2
"2009-04-14 00:00:30",798091,6.211,299.3,9.52,1.402,14.82,105.5047,13.36,14.43,18.18,0,110.4,13.29,14.16,261.3
"2009-04-14 00:01:00",798092,4.918,290.6,1.699,0.21,12.03,105.5039,13.36,14.34,18.09,0,110.4,13.32,14.16,252.6
"2009-04-14 00:01:30",798093,5.771,295.7,5.436,1.164,13.4,105.5011,13.36,14.51,18.29,0,110.4,13.28,14.15,257.7
"2009-04-14 00:02:00",798094,5.504,291.2,4.937,1.328,12.85,105.498,13.35,14.39,18.2,0,110.4,13.28,14.15,253.2
"2009-04-14 00:02:30",798095,4.914,291.4,4.734,0.191,11.85,105.4909,13.33,14.36,18.16,0,110.4,13.32,14.13,253.4
"2009-04-14 00:03:00",798096,5.136,290.6,2.257,0.243,11.82,105.4844,13.31,14.34,18.54,0,110.4,13.32,14.11,252.6
"2009-04-14 00:03:30",798097,5.119,289.8,1.349,0.139,12.12,105.4796,13.3,14.35,18.66,0,110.4,13.32,14.10,251.8
"2009-04-14 00:04:00",798098,5.288,291.4,1.043,0.147,12.41,105.4791,13.3,14.32,18.17,0,110.4,13.32,14.10,253.4
"2009-04-14 00:04:30",798099,6.387,294.7,5.126,1.261,13.66,105.4785,13.3,14.32,17.99,0,110.4,13.28,14.10,256.7
"2009-04-14 00:05:00",798100,7.229,295.9,8.46,1.222,16.53,105.4785,13.3,14.55,18.24,0,110.4,13.28,14.10,257.9
"2009-04-14 00:05:30",798101,6.722,297.9,7.814,1.343,15.51,105.4785,13.3,14.48,18.18,0,110.4,13.29,14.10,259.9
"2009-04-14 00:06:00",798102,5.691,290.9,4.166,0.818,12.8,105.4785,13.3,14.34,17.97,0,110.4,13.29,14.10,252.9
"2009-04-14 00:06:30",798103,6.72,295.9,7.853,1.353,14.82,105.4785,13.3,14.49,18.08,0,110.4,13.29,14.10,257.9
"2009-04-14 00:07:00",798104,7.041,296.8,7.729,1.431,14.59,105.4785,13.3,14.43,18.15,0,110.4,13.29,14.10,258.8
"2009-04-14 00:07:30",798105,6.266,294.6,4.366,0.843,12.96,105.4785,13.3,14.49,18.2,0,110.4,13.29,14.10,256.6
"2009-04-14 00:08:00",798106,6.645,294.8,6.127,1.068,12.87,105.4785,13.3,14.3,17.98,0,110.4,13.29,14.10,256.8
"2009-04-14 00:08:30",798107,5.991,292.7,1.752,0.18,11.81,105.4785,13.3,14.29,17.99,0,110.4,13.33,14.10,254.7
"2009-04-14 00:09:00",798108,5.98,294.3,0.484,0.071,11.95,105.4785,13.3,14.32,18.01,0,110.4,13.33,14.10,256.3
"2009-04-14 00:09:30",798109,6.029,294.2,1.229,0.069,12.42,105.4785,13.3,14.31,18.01,0,110.4,13.33,14.10,256.2
"2009-04-14 00:10:00",798110,6.269,296.7,4.518,0.748,13.49,105.4785,13.3,14.42,18.14,0,110.3,13.29,14.10,258.7
"2009-04-14 00:10:30",798111,8.13,305.6,6.67,1.303,16.3,105.4774,13.29,14.5,18.18,0,110.4,13.29,14.09,267.6
"2009-04-14 00:11:00",798112,7.836,305.2,7.015,1.358,15.66,105.474,13.29,14.43,18.15,0,110.4,13.29,14.08,267.2
"2009-04-14 00:11:30",798113,6.1,299.6,0.924,0.14,12.65,105.4735,13.28,14.3,18.02,0,110.4,13.33,14.08,261.6
"2009-04-14 00:12:00",798114,7.361,300.6,5.912,1.445,14.9,105.4729,13.28,14.47,18.17,0,110.4,13.29,14.08,262.6
"2009-04-14 00:12:30",798115,6.754,299.1,6.24,1.226,13.76,105.4733,13.28,14.38,18.14,0,110.5,13.29,14.08,261.1
"2009-04-14 00:13:00",798116,7.283,304.8,8.04,1.43,14.54,105.4722,13.28,14.47,18.23,0,110.4,13.29,14.08,266.8
"2009-04-14 00:13:30",798117,5.822,296.9,1.148,0.13,11.92,105.4734,13.28,14.28,18.03,0,110.4,13.33,14.08,258.9
"2009-04-14 00:14:00",798118,5.966,292.8,1.435,0.213,11.84,105.4749,13.29,14.29,18.07,0,110.4,13.33,14.09,254.8
"2009-04-14 00:14:30",798119,6.507,294.9,1.483,0.157,12.13,105.4764,13.29,14.29,18.04,0,110.4,13.33,14.09,256.9
"2009-04-14 00:15:00",798120,6.594,296.7,0.89,0.109,12.53,105.4771,13.29,14.29,18.05,0,110.4,13.33,14.09,258.7
"2009-04-14 00:15:30",798121,7.61,302.4,6.938,1.343,14.65,105.4771,13.29,14.46,18.26,0,110.4,13.3,14.09,264.4
"2009-04-14 00:16:00",798122,6.595,299.9,4.283,0.543,13.47,105.4778,13.3,14.48,18.38,0,110.4,13.3,14.09,261.9
"2009-04-14 00:16:30",798123,7.414,302.6,8.36,1.488,15.1,105.4798,13.3,14.36,18.27,0,110.4,13.3,14.10,264.6
"2009-04-14 00:17:00",798124,6.452,298.4,1.597,0.148,12.92,105.4796,13.3,14.38,18.26,0,110.4,13.33,14.10,260.4
"2009-04-14 00:17:30",798125,7.884,304.5,6.342,1.435,15.17,105.4832,13.31,14.36,18.27,0,110.4,13.29,14.11,266.5
"2009-04-14 00:18:00",798126,8.11,308.3,6.409,1.317,16.14,105.4852,13.31,14.56,18.53,0,110.4,13.29,14.11,270.3
"2009-04-14 00:18:30",798127,7.452,306.8,5.682,1.285,13.92,105.491,13.33,14.32,18.31,0,110.4,13.29,14.13,268.8
"2009-04-14 00:19:00",798128,6.599,299.8,1.257,0.149,12.06,105.4919,13.33,14.3,18.3,0,110.4,13.33,14.13,261.8
"2009-04-14 00:19:30",798129,6.13,300.9,1.355,0.123,12.08,105.4954,13.34,14.3,18.27,0,110.4,13.33,14.14,262.9
"2009-04-14 00:20:00",798130,6.383,300.6,1.641,0.122,12.41,105.4972,13.35,14.3,18.24,0,110.4,13.33,14.14,262.6
"2009-04-14 00:20:30",798131,7.476,307.2,6.849,1.269,14.72,105.4969,13.34,14.44,18.45,0,110.4,13.29,14.14,269.2
"2009-04-14 00:21:00",798132,7.203,306.1,6.568,1.15,14.52,105.5007,13.35,14.44,18.4,0,110.4,13.3,14.15,268.1
"2009-04-14 00:21:30",798133,6.674,304.3,2.631,0.515,13.03,105.5051,13.37,14.35,18.28,0,110.4,13.3,14.16,266.3
"2009-04-14 00:22:00",798134,7.732,312.5,6.603,1.349,15.02,105.5065,13.37,14.43,18.25,0,110.4,13.3,14.17,274.5
"2009-04-14 00:22:30",798135,6.387,307.6,1.815,0.139,13.12,105.507,13.37,14.41,18.05,0,110.4,13.33,14.17,269.6
"2009-04-14 00:23:00",798136,7.191,305.6,5.404,1.02,13.6,105.511,13.38,14.32,17.91,0,110.4,13.3,14.18,267.6
"2009-04-14 00:23:30",798137,8.14,309.8,6.851,1.331,15.66,105.5133,13.39,14.55,18.22,0,110.4,13.3,14.19,271.8
"2009-04-14 00:24:00",798138,7.615,309.1,7.102,1.342,15.31,105.5142,13.39,14.52,18.47,0,110.4,13.3,14.19,271.1
"2009-04-14 00:24:30",798139,6.359,301.5,1.087,0.091,12.37,105.5142,13.39,14.33,18.48,0,110.4,13.34,14.19,263.5
"2009-04-14 00:25:00",798140,6.418,300.9,0.645,0.075,12.23,105.5142,13.39,14.35,18.84,0,110.4,13.34,14.19,262.9
"2009-04-14 00:25:30",798141,6.798,300.1,0.985,0.489,12.38,105.5142,13.39,14.36,19.03,0,110.4,13.3,14.19,262.1
"2009-04-14 00:26:00",798142,8.09,305.7,6.797,1.254,14.84,105.5142,13.39,14.49,19.22,0,110.4,13.3,14.19,267.7
"2009-04-14 00:26:30",798143,6.873,300.3,0.505,0.095,12.7,105.5142,13.39,14.43,19.19,0,110.4,13.34,14.19,262.3
"2009-04-14 00:27:00",798144,7.312,301.5,0.549,0.142,12.65,105.5142,13.39,14.36,19.16,0,110.4,13.34,14.19,263.5
"2009-04-14 00:27:30",798145,8.21,306.8,6.565,1.201,14.91,105.5142,13.39,14.5,19.3,0,110.4,13.3,14.19,268.8
"2009-04-14 00:28:00",798146,7.26,303.1,0.958,0.104,12.9,105.5142,13.39,14.4,19.23,0,110.3,13.34,14.19,265.1
"2009-04-14 00:28:30",798147,8.05,307,6.147,1.133,14.52,105.5142,13.39,14.37,19.24,0,110.4,13.31,14.19,269.0
"2009-04-14 00:29:00",798148,8.72,310.6,7.12,1.349,15.68,105.5142,13.39,14.58,19.45,0,110.4,13.31,14.19,272.6
"2009-04-14 00:29:30",798149,8.33,308.5,7.019,1.248,15.2,105.5145,13.39,14.6,19.57,0,110.4,13.31,14.19,270.5
"2009-04-14 00:30:00",798150,7.474,304.3,0.999,0.12,12.5,105.5145,13.39,14.43,19.5,0,110.4,13.34,14.19,266.3
"2009-04-14 00:30:30",798151,7.46,307.2,1.461,0.178,12.35,105.5145,13.39,14.44,19.49,0,110.4,13.34,14.19,269.2
"2009-04-14 00:31:00",798152,8.74,313.4,7.251,1.185,14.7,105.5179,13.4,14.51,19.54,0,110.4,13.31,14.20,275.4
"2009-04-14 00:31:30",798153,8.14,307.7,4.633,0.718,13.19,105.5212,13.41,14.55,19.43,0,110.3,13.31,14.21,269.7
"2009-04-14 00:32:00",798154,8.1,306.1,1.559,0.251,12.67,105.5227,13.41,14.4,19.18,0,110.4,13.34,14.21,268.1
"2009-04-14 00:32:30",798155,8.73,312.8,6.35,1.247,14.89,105.53,13.43,14.56,19.25,0,110.3,13.31,14.23,274.8
"2009-04-14 00:33:00",798156,7.603,305.4,2.251,0.309,12.95,105.5334,13.44,14.4,19.03,0,110.4,13.34,14.24,267.4
"2009-04-14 00:33:30",798157,7.526,308.8,4.108,0.796,13.51,105.5359,13.44,14.45,19.03,0,110.3,13.31,14.24,270.8
"2009-04-14 00:34:00",798158,8.47,313.8,6.586,1.491,15.8,105.5356,13.44,14.53,19.12,0,110.3,13.3,14.24,275.8
"2009-04-14 00:34:30",798159,8.86,316.8,6.621,1.236,16.36,105.5382,13.45,14.62,19.28,0,110.3,13.3,14.25,278.8
"2009-04-14 00:35:00",798160,7.322,311.5,1.017,0.482,12.72,105.5396,13.45,14.42,19.15,0,110.3,13.3,14.25,273.5
"2009-04-14 00:35:30",798161,8.12,309.5,6.9,1.184,13.81,105.5401,13.46,14.46,19.23,0,110.3,13.3,14.25,271.5
"2009-04-14 00:36:00",798162,8.12,304.5,6.209,1.271,14.2,105.541,13.46,14.58,19.42,0,110.3,13.3,14.26,266.5
"2009-04-14 00:36:30",798163,7.083,300.6,1.682,0.21,12.35,105.5413,13.46,14.43,19.3,0,110.3,13.33,14.26,262.6
"2009-04-14 00:37:00",798164,8.3,305.2,4.102,1.011,12.61,105.541,13.46,14.42,19.18,0,110.3,13.3,14.26,267.2
"2009-04-14 00:37:30",798165,9.86,312.4,7.996,1.42,14.88,105.5401,13.46,14.59,19.14,0,110.3,13.3,14.25,274.4
"2009-04-14 00:38:00",798166,8.38,305.5,1.897,0.238,12.85,105.5407,13.46,14.43,18.89,0,110.3,13.33,14.26,267.5
"2009-04-14 00:38:30",798167,7.658,307.1,1.141,0.204,12.97,105.5401,13.46,14.49,18.98,0,110.3,13.33,14.25,269.1
"2009-04-14 00:39:00",798168,8.67,313.5,7.846,1.494,15.44,105.5399,13.45,14.54,19.03,0,110.3,13.3,14.25,275.5
"2009-04-14 00:39:30",798169,8.5,313.5,6.752,1.378,16.11,105.5393,13.45,14.69,19.21,0,110.3,13.31,14.25,275.5
"2009-04-14 00:40:00",798170,8.31,314.1,8.69,1.262,15.42,105.5387,13.45,14.56,19.14,0,110.3,13.31,14.25,276.1
"2009-04-14 00:40:30",798171,8.5,313.1,6.113,1.294,14.46,105.5385,13.45,14.5,19.19,0,110.3,13.31,14.25,275.1
"2009-04-14 00:41:00",798172,8.38,317.8,6.826,1.346,14.29,105.5351,13.44,14.58,19.3,0,110.3,13.31,14.24,279.8
"2009-04-14 00:41:30",798173,7.668,312.9,0.887,0.328,12.25,105.5359,13.44,14.45,19.21,0,110.3,13.34,14.24,274.9
"2009-04-14 00:42:00",798174,8.46,314.7,6.725,1.268,14.62,105.5314,13.43,14.56,19.46,0,110.3,13.31,14.23,276.7
"2009-04-14 00:42:30",798175,7.665,304.9,4.376,0.784,13.51,105.5277,13.42,14.57,19.42,0,110.3,13.31,14.22,266.9
"2009-04-14 00:43:00",798176,6.929,309,2.45,0.255,12.73,105.5207,13.41,14.43,19.21,0,110.3,13.35,14.20,271.0
"2009-04-14 00:43:30",798177,7.458,309.5,2.429,0.291,12.94,105.5162,13.39,14.44,19.33,0,110.3,13.35,14.19,271.5
"2009-04-14 00:44:00",798178,8.73,316.3,7.693,1.318,15.31,105.5162,13.39,14.6,19.55,0,110.3,13.31,14.19,278.3
"2009-04-14 00:44:30",798179,8.95,315,6.567,1.273,16.19,105.5145,13.39,14.68,19.56,0,110.3,13.31,14.19,277.0
"2009-04-14 00:45:00",798180,9.62,314.9,7.247,1.173,16.52,105.5142,13.39,14.61,19.52,0,110.3,13.31,14.19,276.9
"2009-04-14 00:45:30",798181,9,314,5.637,1.578,14.57,105.5142,13.39,14.58,19.54,0,110.3,13.31,14.19,276.0
"2009-04-14 00:46:00",798182,7.482,311,1.096,0.502,12.1,105.5142,13.39,14.42,19.44,0,110.3,13.35,14.19,273.0
"2009-04-14 00:46:30",798183,7.803,313.7,6.691,1.12,12.88,105.5142,13.39,14.42,19.47,0,110.3,13.31,14.19,275.7
"2009-04-14 00:47:00",798184,9.28,308.7,6.372,1.285,14.61,105.5142,13.39,14.58,19.62,0,110.3,13.31,14.19,270.7
"2009-04-14 00:47:30",798185,8.79,302.9,3.679,0.294,12.63,105.5142,13.39,14.42,19.4,0,110.3,13.35,14.19,264.9
"2009-04-14 00:48:00",798186,8.83,305.4,1.866,0.439,12.8,105.5142,13.39,14.42,19.39,0,110.3,13.35,14.19,267.4
"2009-04-14 00:48:30",798187,8.5,306.7,3.9,0.597,13.07,105.5142,13.39,14.41,19.37,0,110.3,13.35,14.19,268.7
"2009-04-14 00:49:00",798188,8.62,305.8,8.28,1.195,15.63,105.5142,13.39,14.66,19.6,0,110.3,13.31,14.19,267.8
"2009-04-14 00:49:30",798189,9.51,309.8,5.26,0.983,17.38,105.5142,13.39,14.69,19.61,0,110.3,13.31,14.19,271.8
"2009-04-14 00:50:00",798190,7.875,305.1,7.143,1.267,14.98,105.5142,13.39,14.57,19.51,0,110.3,13.31,14.19,267.1
"2009-04-14 00:50:30",798191,6.454,298.8,2.085,0.248,12.12,105.5145,13.39,14.44,19.34,0,110.3,13.34,14.19,260.8
"2009-04-14 00:51:00",798192,6.427,299.8,1.763,0.109,11.92,105.5145,13.39,14.4,19.28,0,110.4,13.34,14.19,261.8
"2009-04-14 00:51:30",798193,7.233,301.9,6.948,1.327,13.87,105.5151,13.39,14.54,19.43,0,110.3,13.31,14.19,263.9
"2009-04-14 00:52:00",798194,6.254,297.6,2.336,0.223,12.29,105.5123,13.38,14.45,19.39,0,110.3,13.34,14.18,259.6
"2009-04-14 00:52:30",798195,7.019,298,2.423,0.338,12.45,105.5078,13.37,14.38,19.41,0,110.3,13.34,14.17,260.0
"2009-04-14 00:53:00",798196,7.175,301.1,1.631,0.155,12.74,105.5075,13.37,14.38,19.47,0,110.3,13.34,14.17,263.1
"2009-04-14 00:53:30",798197,6.89,299.3,1.152,0.217,13.06,105.5076,13.37,14.39,19.55,0,110.4,13.34,14.17,261.3
"2009-04-14 00:54:00",798198,8.46,306.5,5.889,1.415,15.86,105.5014,13.36,14.54,19.75,0,110.3,13.31,14.15,268.5
"2009-04-14 00:54:30",798199,9.3,310.9,8.07,1.513,16.84,105.4992,13.35,14.66,19.93,0,110.3,13.31,14.15,272.9
"2009-04-14 00:55:00",798200,9.65,311.9,7.149,1.187,16.4,105.4905,13.33,14.57,19.82,0,110.3,13.31,14.13,273.9
"2009-04-14 00:55:30",798201,7.345,296.5,3.171,0.179,12.41,105.4886,13.32,14.48,19.75,0,110.3,13.35,14.12,258.5
"2009-04-14 00:56:00",798202,8.22,299.8,7.204,1.371,14.07,105.4881,13.32,14.45,19.72,0,110.3,13.31,14.12,261.8
"2009-04-14 00:56:30",798203,7.673,299.1,5.64,1.109,13.32,105.4896,13.33,14.52,19.81,0,110.3,13.31,14.12,261.1
"2009-04-14 00:57:00",798204,7.847,300,4.881,1.061,13.19,105.4893,13.32,14.36,19.67,0,110.3,13.31,14.12,262.0
"2009-04-14 00:57:30",798205,7.511,297.8,1.067,0.147,12.61,105.4899,13.33,14.35,19.62,0,110.3,13.35,14.13,259.8
"2009-04-14 00:58:00",798206,7.524,295.6,0.663,0.058,12.95,105.4908,13.33,14.34,19.49,0,110.3,13.35,14.13,257.6
"2009-04-14 00:58:30",798207,8.75,301.6,6.063,1.436,15.35,105.4902,13.33,14.39,19.43,0,110.3,13.32,14.13,263.6
"2009-04-14 00:59:00",798208,8.7,302.6,6.655,1.261,15.92,105.4908,13.33,14.53,19.61,0,110.3,13.32,14.13,264.6
"2009-04-14 00:59:30",798209,8.31,299.5,7.24,1.353,15.18,105.4911,13.33,14.55,19.71,0,110.3,13.32,14.13,261.5
"2009-04-14 01:00:00",798210,8.21,298.2,6.749,1.115,14.73,105.4914,13.33,14.55,19.67,0,110.3,13.32,14.13,260.2
"2009-04-14 01:00:30",798211,8.43,298.7,7.103,1.23,13.95,105.4898,13.33,14.36,19.44,0,110.3,13.32,14.12,260.7
"2009-04-14 01:01:00",798212,7.185,295.7,5.38,0.756,12.89,105.4876,13.32,14.45,19.6,0,110.3,13.32,14.12,257.7
"2009-04-14 01:01:30",798213,7.841,297.9,7.875,1.347,13.49,105.4859,13.32,14.33,19.52,0,110.3,13.31,14.11,259.9
"2009-04-14 01:02:00",798214,6.927,290.7,1.459,0.207,12.3,105.4853,13.31,14.31,19.51,0,110.3,13.35,14.11,252.7
"2009-04-14 01:02:30",798215,7.055,291.2,1.922,0.195,12.59,105.4874,13.32,14.32,19.5,0,110.3,13.35,14.12,253.2
"2009-04-14 01:03:00",798216,7.256,293.7,2.122,0.145,12.83,105.4866,13.32,14.32,19.51,0,110.3,13.35,14.12,255.7
"2009-04-14 01:03:30",798217,7.008,291.8,1.806,0.323,13.05,105.4832,13.31,14.3,19.47,0,110.3,13.36,14.11,253.8
"2009-04-14 01:04:00",798218,8.46,302.9,8.98,1.452,15.43,105.483,13.31,14.38,19.56,0,110.3,13.32,14.11,264.9
"2009-04-14 01:04:30",798219,9.11,304,7.286,1.41,15.75,105.4822,13.31,14.52,19.72,0,110.3,13.32,14.11,266.0
"2009-04-14 01:05:00",798220,8.73,305.2,8.75,1.378,14.66,105.4827,13.31,14.45,19.74,0,110.3,13.32,14.11,267.2
"2009-04-14 01:05:30",798221,7.599,301.2,3.881,0.724,12.58,105.4824,13.31,14.31,19.73,0,110.3,13.32,14.11,263.2
"2009-04-14 01:06:00",798222,8.39,301,7.762,1.476,13.83,105.4873,13.32,14.33,19.72,0,110.4,13.32,14.12,263.0
"2009-04-14 01:06:30",798223,9.8,301.5,8.11,1.364,14.84,105.4895,13.33,14.59,19.91,0,110.4,13.32,14.12,263.5
"2009-04-14 01:07:00",798224,10.54,304.9,5.097,1.271,13.98,105.4935,13.34,14.35,19.71,0,110.3,13.32,14.13,266.9
"2009-04-14 01:07:30",798225,9.46,299.8,1.734,0.171,12.29,105.4991,13.35,14.32,19.85,0,110.3,13.35,14.15,261.8
"2009-04-14 01:08:00",798226,9.18,297.3,2.295,0.173,12.44,105.4967,13.34,14.31,19.94,0,110.3,13.35,14.14,259.3
"2009-04-14 01:08:30",798227,8.98,301.1,3.555,0.309,12.78,105.4964,13.34,14.32,19.96,0,110.4,13.35,14.14,263.1
"2009-04-14 01:09:00",798228,8.45,305.4,2.072,0.317,13.05,105.4961,13.34,14.34,20.04,0,110.3,13.35,14.14,267.4
"2009-04-14 01:09:30",798229,9.16,310.5,6.801,1.21,15.24,105.4978,13.35,14.46,20.15,0,110.3,13.31,14.15,272.5
"2009-04-14 01:10:00",798230,9.74,312.7,8.07,1.318,16.45,105.5125,13.38,14.61,20.28,0,110.4,13.31,14.18,274.7
"2009-04-14 01:10:30",798231,9.42,308.6,7.732,1.088,13.78,105.5177,13.4,14.45,20.13,0,110.4,13.31,14.20,270.6
"2009-04-14 01:11:00",798232,9.45,304.2,5.473,1.204,13.44,105.5252,13.42,14.43,20.01,0,110.4,13.31,14.22,266.2
"2009-04-14 01:11:30",798233,10.93,309.4,5.977,1.183,15.96,105.5279,13.42,14.61,20.01,0,110.4,13.31,14.22,271.4
"2009-04-14 01:12:00",798234,10.64,305.2,8.82,1.38,14.94,105.5294,13.43,14.58,20.02,0,110.4,13.31,14.23,267.2
"2009-04-14 01:12:30",798235,9.36,296.3,3.105,0.291,12.15,105.527,13.42,14.39,20.16,0,110.4,13.35,14.22,258.3
"2009-04-14 01:13:00",798236,8.89,296.5,1.96,0.269,12.3,105.5261,13.42,14.41,20.23,0,110.4,13.35,14.22,258.5
"2009-04-14 01:13:30",798237,9.48,303.4,2.767,0.534,12.58,105.5264,13.42,14.41,20.14,0,110.4,13.35,14.22,265.4
"2009-04-14 01:14:00",798238,10.42,309.8,8.54,1.386,14.55,105.5255,13.42,14.57,20.45,0,110.4,13.32,14.22,271.8
"2009-04-14 01:14:30",798239,11.64,315.8,10.06,1.522,16.65,105.5249,13.42,14.65,20.63,0,110.4,13.32,14.22,277.8
"2009-04-14 01:15:00",798240,11.86,310,7.188,1.416,15.19,105.5252,13.42,14.51,20.58,0,110.4,13.32,14.22,272.0
"2009-04-14 01:15:30",798241,11.52,306.8,4.864,0.923,13.09,105.5246,13.42,14.43,20.62,0,110.4,13.31,14.21,268.8
"2009-04-14 01:16:00",798242,12.06,309.7,7.568,1.348,14.89,105.5255,13.42,14.66,21.04,0,110.4,13.31,14.22,271.7
"2009-04-14 01:16:30",798243,12.75,312.3,7.009,1.204,15.62,105.526,13.42,14.64,20.98,0,110.4,13.31,14.22,274.3
"2009-04-14 01:17:00",798244,10.91,301.4,1.237,0.175,12.47,105.5237,13.41,14.43,20.83,0,110.4,13.35,14.21,263.4
"2009-04-14 01:17:30",798245,10.53,301.5,5.966,0.844,13.08,105.5234,13.41,14.43,20.81,0,110.4,13.31,14.21,263.5
"2009-04-14 01:18:00",798246,10.97,309,4.885,0.992,13.84,105.5249,13.42,14.54,20.95,0,110.4,13.31,14.22,271.0
"2009-04-14 01:18:30",798247,12.12,312.9,5.817,1.35,16.82,105.5243,13.41,14.68,21.15,0,110.4,13.31,14.21,274.9
"2009-04-14 01:19:00",798248,11.28,312.4,6.972,1.282,15.83,105.524,13.41,14.61,21.01,0,110.4,13.31,14.21,274.4
"2009-04-14 01:19:30",798249,10.71,310.8,6.985,1.328,14.56,105.5234,13.41,14.6,20.97,0,110.4,13.31,14.21,272.8
"2009-04-14 01:20:00",798250,11.21,312.5,6.77,1.317,14.59,105.5178,13.4,14.51,20.84,0,110.4,13.31,14.20,274.5
"2009-04-14 01:20:30",798251,11.07,302.1,7.722,1.084,13.26,105.5156,13.39,14.44,21.13,0,110.4,13.31,14.19,264.1
"2009-04-14 01:21:00",798252,11.56,305.1,7.266,1.309,14.53,105.5097,13.38,14.54,21.81,0,110.4,13.31,14.18,267.1
"2009-04-14 01:21:30",798253,11.18,300.7,6.131,1.008,13.34,105.4993,13.35,14.52,22.05,0,110.4,13.31,14.15,262.7
"2009-04-14 01:22:00",798254,11.9,301.5,6.327,1.262,13.91,105.4926,13.33,14.47,22.19,0,110.4,13.31,14.13,263.5
"2009-04-14 01:22:30",798255,11.59,308.7,6.797,1.346,15.82,105.4938,13.34,14.6,22.29,0,110.4,13.31,14.14,270.7
"2009-04-14 01:23:00",798256,11.51,306.3,6.209,1.345,14.72,105.4917,13.33,14.59,22.25,0,110.4,13.31,14.13,268.3
"2009-04-14 01:23:30",798257,11.61,307.7,6.383,1.236,14.01,105.4879,13.32,14.42,22.13,0,110.4,13.31,14.12,269.7
"2009-04-14 01:24:00",798258,11.93,306.7,6.357,1.397,14.79,105.477,13.29,14.53,22.44,0,110.4,13.31,14.09,268.7
"2009-04-14 01:24:30",798259,12.43,306.9,6.446,1.569,14.84,105.4649,13.26,14.44,22.38,0,110.4,13.31,14.06,268.9
"2009-04-14 01:25:00",798260,11.41,302.6,2.611,0.316,12.75,105.462,13.26,14.42,22.25,0,110.4,13.34,14.05,264.6
"2009-04-14 01:25:30",798261,12.38,308.8,7.098,1.097,14.48,105.4604,13.25,14.45,22.35,0,110.4,13.31,14.05,270.8
"2009-04-14 01:26:00",798262,11.65,306,7.904,1.416,13.66,105.448,13.22,14.4,22.64,0,110.4,13.31,14.02,268.0
"2009-04-14 01:26:30",798263,12.43,310.4,6.004,1.406,13.94,105.4314,13.18,14.33,22.33,0,110.4,13.31,13.97,272.4
"2009-04-14 01:27:00",798264,13.19,313.8,7.774,1.312,15.18,105.4311,13.18,14.44,22.4,0,110.4,13.31,13.97,275.8
"2009-04-14 01:27:30",798265,12.35,305.7,6.209,1.216,13.91,105.4303,13.17,14.35,22.69,0,110.4,13.31,13.97,267.7
"2009-04-14 01:28:00",798266,12.71,309.2,5.862,1.438,14.43,105.4258,13.16,14.26,22.71,0,110.3,13.31,13.96,271.2
"2009-04-14 01:28:30",798267,12.51,309.2,6.399,1.47,14.62,105.4135,13.13,14.37,22.73,0,110.4,13.31,13.93,271.2
"2009-04-14 01:29:00",798268,12.3,308.2,6.627,1.209,14.69,105.3991,13.09,14.31,22.88,0,110.4,13.31,13.89,270.2
"2009-04-14 01:29:30",798269,11.5,304,5.787,1.097,13.65,105.4009,13.1,14.28,22.9,0,110.4,13.31,13.90,266.0
"2009-04-14 01:30:00",798270,12.77,311.9,6.846,1.321,15.66,105.4024,13.1,14.36,23.05,0,110.4,13.31,13.90,273.9
"2009-04-14 01:30:30",798271,12.69,312.8,6.849,1.107,16.07,105.3899,13.07,14.36,23.12,0,110.4,13.32,13.87,274.8
"2009-04-14 01:31:00",798272,12.82,311.6,6.922,1.397,15.3,105.3759,13.03,14.23,23.1,0,110.4,13.32,13.83,273.6
"2009-04-14 01:31:30",798273,11.01,303.3,1.307,0.135,12.17,105.3688,13.02,14.09,22.98,0,110.4,13.35,13.81,265.3
"2009-04-14 01:32:00",798274,12.29,310.4,7.232,1.3,14.66,105.3715,13.02,14.26,23.14,0,110.3,13.32,13.82,272.4
"2009-04-14 01:32:30",798275,11.17,307.1,5.455,1.08,13.88,105.3712,13.02,14.19,23.08,0,110.3,13.32,13.82,269.1
"2009-04-14 01:33:00",798276,11.59,310.1,7.348,1.406,14.46,105.3721,13.02,14.18,23.07,0,110.3,13.32,13.82,272.1
"2009-04-14 01:33:30",798277,11.08,305.4,3.67,0.713,13.12,105.366,13.01,14.16,23.04,0,110.3,13.32,13.81,267.4
"2009-04-14 01:34:00",798278,13.27,316.5,5.821,1.051,16.47,105.3568,12.99,14.25,23.19,0,110.3,13.32,13.78,278.5
"2009-04-14 01:34:30",798279,12.61,313.8,6.719,1.303,15.26,105.3453,12.96,14.24,23.25,0,110.3,13.32,13.75,275.8
"2009-04-14 01:35:00",798280,11.45,309.1,5.215,1.017,13.29,105.3448,12.95,14.06,23.15,0,110.3,13.32,13.75,271.1
"2009-04-14 01:35:30",798281,12.29,313.3,6.934,1.426,14.1,105.3457,12.96,14.04,23.31,0,110.3,13.32,13.75,275.3
"2009-04-14 01:36:00",798282,11.92,310.5,5.978,1.244,13.8,105.3457,12.96,14.18,23.75,0,110.3,13.32,13.75,272.5
"2009-04-14 01:36:30",798283,11.84,310.1,6.16,1.229,14.21,105.3457,12.96,14.2,23.79,0,110.3,13.33,13.75,272.1
"2009-04-14 01:37:00",798284,11.98,312,5.694,1.221,13.81,105.3426,12.95,13.98,23.65,0,110.3,13.33,13.75,274.0
"2009-04-14 01:37:30",798285,12.77,316.9,7.018,1.539,14.76,105.3373,12.94,14.12,23.8,0,110.3,13.32,13.73,278.9
"2009-04-14 01:38:00",798286,14.19,318.9,6.12,1.075,15.81,105.3263,12.91,14.16,24.1,0,110.3,13.32,13.70,280.9
"2009-04-14 01:38:30",798287,12.33,310.2,0.892,0.155,12.12,105.313,12.87,13.94,24.22,0,110.3,13.36,13.67,272.2
"2009-04-14 01:39:00",798288,13.3,314.1,6.205,1.305,13.5,105.313,12.87,13.93,24.27,0,110.3,13.32,13.67,276.1
"2009-04-14 01:39:30",798289,13.78,317.1,6.912,1.388,14.71,105.313,12.87,14.08,24.66,0,110.3,13.33,13.67,279.1
"2009-04-14 01:40:00",798290,14.4,319,6.943,1.297,15.28,105.313,12.87,14.09,24.66,0,110.3,13.33,13.67,281.0
"2009-04-14 01:40:30",798291,12.99,311.7,5.877,1.067,13.24,105.3065,12.86,14.02,24.88,0,110.3,13.32,13.65,273.7
"2009-04-14 01:41:00",798292,14.55,316.7,6.499,1.313,15.33,105.2953,12.83,14.14,24.98,0,110.3,13.31,13.63,278.7
"2009-04-14 01:41:30",798293,14.1,317.4,7.586,1.368,14.77,105.2792,12.79,13.94,24.61,0,110.3,13.31,13.58,279.4
"2009-04-14 01:42:00",798294,12.2,308.5,1.757,0.285,12.14,105.2792,12.79,13.92,24.56,0,110.3,13.35,13.58,270.5
"2009-04-14 01:42:30",798295,12.74,312.2,5.132,1.021,12.66,105.2792,12.79,13.87,24.71,0,110.3,13.31,13.58,274.2
"2009-04-14 01:43:00",798296,13.68,316.7,6.536,1.377,15.56,105.2738,12.77,14.07,24.94,0,110.3,13.31,13.57,278.7
"2009-04-14 01:43:30",798297,14.04,318.2,5.981,1.234,15.75,105.2611,12.74,13.94,24.94,0,110.3,13.31,13.54,280.2
"2009-04-14 01:44:00",798298,14.23,319.8,6.294,1.148,15.8,105.249,12.71,13.97,24.91,0,110.3,13.31,13.51,281.8
"2009-04-14 01:44:30",798299,12.55,313.4,5.302,1.236,13.7,105.2453,12.7,13.84,24.6,0,110.3,13.31,13.50,275.4
"2009-04-14 01:45:00",798300,12.52,314.9,6.365,1.344,14.55,105.2453,12.7,13.93,24.7,0,110.3,13.32,13.50,276.9
"2009-04-14 01:45:30",798301,11.87,305.8,1.965,0.573,12.17,105.2453,12.7,13.83,24.53,0,110.3,13.35,13.50,267.8
"2009-04-14 01:46:00",798302,11.94,310.5,5.095,1.065,13.05,105.2451,12.7,13.91,24.75,0,110.3,13.33,13.50,272.5
"2009-04-14 01:46:30",798303,13.82,321,6.217,1.18,16.13,105.2363,12.68,13.93,24.68,0,110.3,13.33,13.47,283.0
"2009-04-14 01:47:00",798304,13.46,318.1,6.105,1.188,15.6,105.2239,12.65,13.98,25.04,0,110.3,13.33,13.44,280.1
"2009-04-14 01:47:30",798305,12.71,316,5.961,1.281,13.75,105.2126,12.62,13.78,24.97,0,110.3,13.33,13.41,278.0
"2009-04-14 01:48:00",798306,12,310.5,4.098,0.653,12.63,105.2118,12.61,13.89,24.94,0,110.3,13.36,13.41,272.5